Location: La Vergne
(36.0160°N, 86.5820°W)
Time: 05:50:29
(UTC-06:00)

Daily predictions for brighter satellites

Satellite Brightness Start Highest point End
(mag) Time Altitude Azimuth Time Altitude Azimuth Time Altitude Azimuth
Lacrosse 5 3.8 03:44:47 25° ENE 03:44:47 25° ENE 03:47:09 10° NE
Cosmos 2074 Rocket 4.2 04:02:18 10° S 04:08:32 70° E 04:14:45 10° NNE
Centaur D-1AR AC-39 4.2 04:15:47 16° S 04:15:47 16° S 04:17:22 10° SSE
Cosmos 1603 3.7 04:19:00 77° NE 04:19:00 77° NE 04:24:14 10° NNE
Cosmos 2369 Rocket 4.2 04:14:29 11° N 04:18:40 24° ENE 04:23:11 10° ESE
H-2A ROCKET BODY 4.2 04:16:36 30° SW 04:19:15 35° S 04:42:47 10° SE
Cosmos 2184 Rocket 3.8 04:20:36 10° S 04:26:44 87° W 04:32:59 10° N
OAO 3 Copernicus 4.4 04:27:19 74° SE 04:27:19 74° SE 04:32:02 10° E
Cosmos 44 4.4 04:23:26 10° S 04:28:34 47° ESE 04:33:35 10° NE
Cosmos 1943 3.7 04:36:08 10° S 04:41:37 59° ESE 04:47:09 10° NNE
Cosmos 1536 Rocket 3.9 04:43:12 50° SSW 04:43:12 50° SSW 04:46:31 10° S
Cosmos 2154 Rocket 4.4 04:36:39 10° S 04:42:46 64° E 04:48:52 10° NNE
Meteor 1-18 Rocket 4.3 04:43:33 54° WNW 04:44:04 56° W 04:49:50 10° S
Cosmos 921 Rocket 3.8 04:47:21 40° SSW 04:47:21 40° SSW 04:50:30 10° S
Feng Yun 1-1 Rocket 4.2 04:41:45 10° N 04:47:11 56° WNW 04:52:29 10° SSW
Cosmos 1633 2.9 04:45:27 10° S 04:49:03 64° E 04:52:39 10° NNE
Abrixas rocket 4.2 04:55:52 21° NNE 04:55:52 21° NNE 04:57:19 10° NE
Thor Agena Rocket 4.1 04:50:15 10° S 04:54:10 38° WSW 04:54:10 38° WSW
Cosmos 1943 Rocket 4.3 04:52:49 10° N 04:57:01 22° ENE 05:01:12 10° ESE
Okean 1 Rocket 2.9 04:55:58 10° S 05:00:23 83° W 05:04:47 10° N
Cosmos 2056 Rocket 3.3 04:59:37 30° NNW 05:02:09 74° WSW 05:07:13 10° S
CZ-3 R/B 3.1 04:49:12 10° WSW 05:02:33 35° S 05:07:01 10° ESE
Cosmos 1610 Rocket 4.4 04:56:45 10° SSW 05:02:50 63° W 05:09:03 10° N
Cosmos 1238 Rocket 4.1 05:04:08 36° W 05:04:23 37° W 05:09:55 10° SSW
Lacrosse 4 Rocket 4.2 05:06:01 10° NE 05:07:05 11° NE 05:08:09 10° ENE
COSMO-SKYMED 1 2.5 05:03:12 10° SSE 05:07:32 86° ENE 05:11:25 13° N
PSLV R/B 3.2 05:12:06 59° W 05:12:35 74° SSW 05:15:59 10° ESE
USA 215 3.3 05:07:35 10° NE 05:13:59 61° NW 05:20:10 11° WSW
Ariane Rocket 3.0 05:09:24 10° NNE 05:14:28 82° ESE 05:19:32 10° SSW
Cosmos 44 Rocket 3.9 05:13:50 31° W 05:15:22 38° NW 05:20:09 10° NNE
Cosmos 1624 Rocket 4.2 05:12:49 26° NW 05:15:29 50° WSW 05:20:36 10° S
Cosmos 1602 4.0 05:13:30 10° SSW 05:17:16 44° W 05:21:05 10° N
SL-24 DEB 4.5 05:17:11 10° SSE 05:21:57 76° E 05:26:44 10° N
ASTRO E2 4.1 05:21:27 15° SW 05:24:19 34° S 05:27:59 10° ESE
Cosmos 1300 Rocket 4.2 05:20:43 10° SW 05:24:41 32° WNW 05:28:40 10° NNW
Lacrosse 5 2.7 05:24:04 26° WNW 05:25:24 30° NW 05:29:53 10° NNE
Okean 1-7 Rocket 3.5 05:21:51 10° NNW 05:26:13 67° W 05:30:33 10° S
Meteor 1-19 Rocket 4.2 05:20:25 10° NNW 05:26:13 71° W 05:31:55 10° S
CSL-04 DEB 4.3 05:24:17 10° N 05:28:21 68° WNW 05:32:31 10° SSW
CENTAUR R/B 4.5 05:28:32 11° NNW 05:29:07 11° NNW 05:30:41 10° NNW
Meteor 1-28 Rocket 3.2 05:25:26 10° SSE 05:29:13 82° ENE 05:33:02 10° N
Meteor 1-11 Rocket 4.0 05:27:41 10° SSW 05:33:19 48° WNW 05:38:52 10° N
Cosmos 1295 Rocket 4.5 05:28:17 10° S 05:34:36 85° W 05:40:53 10° N
Nadezhda 3 Rocket 4.1 05:32:49 10° NNW 05:38:59 54° W 05:45:08 10° SSW
Cosmos 1461 4.5 05:38:14 10° S 05:42:19 40° ESE 05:46:17 10° NE
Cosmos 1340 3.3 05:38:53 10° N 05:42:37 57° E 05:46:20 10° SSE
IDEFIX/ARIANE 42P 3.8 05:38:37 10° NNE 05:43:36 46° E 05:48:35 10° S
GRACE-2 4.0 05:41:11 10° N 05:43:58 75° E 05:46:44 10° S
GRACE-1 3.9 05:41:37 10° N 05:44:23 78° E 05:47:09 10° S
CSL-04 Rocket 3.7 05:39:30 10° N 05:45:00 66° WNW 05:50:25 10° SSW
Tiangong 2 2.1 05:45:33 18° NW 05:47:29 35° NNE 05:50:25 10° E
Cosmos 2084 3.1 05:47:00 10° SW 05:50:53 69° WNW 05:54:42 10° NNE
CSL-04 Debris 4.2 05:45:39 10° N 05:51:05 69° WNW 05:56:31 10° SSW
Cosmos 1452 Rocket 3.5 05:46:08 10° NNW 05:51:20 64° WSW 05:56:32 10° S
Meteor 1-23 Rocket 4.2 05:46:20 10° NNW 05:51:51 68° W 05:57:22 10° S
Cosmos 1455 Rocket 3.4 05:47:35 10° S 05:51:52 69° E 05:56:11 10° NNE
COSMOS 2406 4.3 05:50:39 10° S 05:56:04 50° ESE 06:01:32 10° NNE
NOSS 3-1 (C) 4.1 05:52:50 10° SSW 05:58:25 57° ESE 06:04:31 10° NE
Meteor 2-4 Rocket 4.0 05:54:28 10° NNW 05:59:47 48° W 06:05:15 10° SSW
Cosmos 2341 Rocket 4.5 05:56:51 10° SW 06:02:36 37° WNW 06:08:21 10° N
Cosmos 2369 Rocket 2.6 05:57:28 10° NW 06:02:52 44° WSW 06:08:13 10° S
Cosmos 839 Rocket 4.4 05:59:54 10° NNW 06:06:20 66° ENE 06:12:25 10° SE
Meteor 1-5 Rocket 4.3 06:01:10 10° SSW 06:06:21 50° W 06:11:31 10° N
USA 129 2.5 06:04:42 10° SSW 06:06:35 32° W 06:08:35 10° NNW
Okean 2 3.5 06:02:30 10° NNW 06:06:36 58° W 06:10:40 10° S
SMAP 3.1 06:10:02 10° N 06:14:42 83° WNW 06:19:21 10° SSW
Cosmos 1536 4.4 06:13:24 10° WSW 06:15:46 15° WNW 06:18:09 10° NW
Cosmos 864 Rocket 4.5 06:13:56 10° SSW 06:20:01 68° W 06:26:11 10° N
CZ-4 R/B 1.6 06:16:32 10° N 06:20:17 44° WNW 06:23:59 10° SSW
Cosmos 158 Rocket 4.0 06:16:38 10° SSW 06:21:52 70° WNW 06:27:15 10° NNE
